Yreka, CA

5:53 PM PDT on September 28, 2016 (GMT -0700)
Siskiyou County

Weather History for KSIY - August, 2013

Change the Weather History Date:

Monday, August 5, 2013

  Actual Average Record
Temperature  
Mean Temperature 73 °F 73 °F  
Max Temperature 95 °F 93 °F 106 °F (1990)
Min Temperature 50 °F 54 °F 39 °F (1950)
Degree Days  
Heating Degree Days 0 0  
Month to date heating degree days 0 0  
Since 1 June heating degree days 70 97  
Since 1 July heating degree days 0 4  
Cooling Degree Days 8 8  
Month to date cooling degree days 24 43  
Year to date cooling degree days 523 356  
Since 1 June cooling degree days 511 343  
Growing Degree Days 22 (Base 50)    
Moisture  
Dew Point 34 °F    
Average Humidity 27    
Maximum Humidity 50    
Minimum Humidity 9    
Precipitation  
Precipitation 0.00 in 0.02 in 0.29 in (1952)
Month to date precipitation 0.00 0.09  
Year to date precipitation 3.83 10.75  
Sea Level Pressure  
Sea Level Pressure 29.96 in    
Wind  
Wind Speed 3 mph (NW)    
Max Wind Speed 15 mph    
Max Gust Speed 18 mph    
Visibility 9 miles    
Events      
T = Trace of Precipitation, MM = Missing Value Source: NWS Daily Summary

Daily Weather History Graph

Daily Weather History Graph

Search for Another Location

Airport or City:

Trip Planner

Search our weather history database for the weather conditions in past years. The results will help you decide how hot, cold, wet, or windy it might be!

Date:

Astronomy

Aug. 05, 2013 Rise Set
Actual Time 6:08 AM PDT 8:22 PM PDT
Civil Twilight 5:37 AM PDT 8:53 PM PDT
Nautical Twilight 4:59 AM PDT 9:31 PM PDT
Astronomical Twilight 4:16 AM PDT 10:13 PM PDT
Moon 5:08 AM PDT (8/5) 7:25 PM PDT (8/5)
Length of Visible Light 15h 16m
Length of Day
14h 14m
Waning Crescent, 1% of the Moon is Illuminated
Aug 5
Waning Crescent
Aug 6
New
Aug 14
First Quarter
Aug 20
Full
Aug 28
Last Quarter

Hourly Weather History & Observations

Time (PDT) Temp. Dew Point Humidity Pressure Visibility Wind Dir Wind Speed Gust Speed Precip Events Conditions
12:53 AM 66.0 °F 30.9 °F 27% 29.99 in 10.0 mi Calm Calm - N/A   Clear
1:53 AM 63.0 °F 30.9 °F 30% 29.99 in 10.0 mi SE 3.5 mph - N/A   Clear
2:53 AM 57.0 °F 30.9 °F 37% 29.99 in 10.0 mi Calm Calm - N/A   Clear
3:53 AM 55.0 °F 30.9 °F 40% 29.99 in 10.0 mi Calm Calm - N/A   Clear
4:53 AM 54.0 °F 35.1 °F 49% 30.00 in 10.0 mi Calm Calm - N/A   Clear
5:53 AM 54.0 °F 34.0 °F 47% 30.01 in 10.0 mi NNE 5.8 mph - N/A   Clear
6:53 AM 52.0 °F 32.0 °F 47% 30.03 in 8.0 mi Calm Calm - N/A   Clear
7:53 AM 63.0 °F 43.0 °F 48% 30.02 in 8.0 mi NNE 5.8 mph - N/A   Clear
8:53 AM 68.0 °F 44.1 °F 42% 30.03 in 6.0 mi Calm Calm - N/A   Haze
9:53 AM 73.0 °F 41.0 °F 31% 30.01 in 7.0 mi Calm Calm - N/A   Clear
10:53 AM 80.1 °F 37.9 °F 22% 30.01 in 10.0 mi Calm Calm - N/A   Clear
11:53 AM 84.0 °F 30.9 °F 15% 29.99 in 10.0 mi WNW 4.6 mph - N/A   Clear
12:53 PM 87.1 °F 27.0 °F 11% 29.97 in 10.0 mi WSW 3.5 mph - N/A   Clear
1:53 PM 90.0 °F 28.0 °F 11% 29.95 in 10.0 mi WSW 6.9 mph - N/A   Clear
2:53 PM 91.9 °F 27.0 °F 10% 29.93 in 10.0 mi Variable 6.9 mph - N/A   Clear
3:53 PM 93.0 °F 27.0 °F 9% 29.91 in 10.0 mi SSW 4.6 mph - N/A   Clear
4:53 PM 93.0 °F 28.0 °F 10% 29.88 in 10.0 mi Calm Calm - N/A   Clear
5:53 PM 91.0 °F 28.0 °F 10% 29.88 in 10.0 mi Calm Calm - N/A   Clear
6:53 PM 91.9 °F 28.9 °F 11% 29.88 in 10.0 mi South 4.6 mph - N/A   Clear
7:53 PM 86.0 °F 41.0 °F 20% 29.90 in 5.0 mi NNW 9.2 mph - N/A   Haze
8:53 PM 80.1 °F 43.0 °F 27% 29.92 in 6.0 mi North 10.4 mph - N/A   Haze
9:53 PM 80.1 °F 44.1 °F 28% 29.94 in 10.0 mi NNW 5.8 mph - N/A   Clear
10:53 PM 75.0 °F 44.1 °F 33% 29.95 in 10.0 mi NNE 5.8 mph - N/A   Clear
11:53 PM 71.1 °F 39.0 °F 31% 29.96 in 10.0 mi Calm Calm - N/A   Clear